Погода в Рыбинске

Хотите узнать прогноз погоды в Рыбинске? Тогда Вам сюда: Погода в Рыбинске

Поиск расширенной информации на нашем сайте:

Полезная информация:

Новости сайта



02.01.2020
Опубликован Долгосрочный прогноз погоды по городам России и ближнего зарубежья на январь 2020 года.
Карты: Прогноз на январь и февраль 2020 года, Сравнение прогнозируемой аномалии приземной температуры воздуха на январь 2020 года по разным моделям.




Погода в Рыбинске - сегодня

Время (UTC), дата Ветер
(°,м/с) 
Видим.   Явления Облачность Т
(°С)
Тd
(°С)
f(%) Тe
(°С)
Pmin
(гПа)
dP
(гПа)
Po
(мм)
O2
(г/м3)
Тmin Tmax R s Состояние
почвы
18 24.01.20 270 (З) 10 км  {снег}  10/10 300 м 
[Sc]
+0.1 -1.7 88 -1  994  -0.6  736  297           
21 24.01.20 270 (З) 10 км    10/10 300 м 
[Sc]
-0.5 -2.3 88 -2  993.7  -0.4  735  297           
00 25.01.20 270 (З) 10 км    10/10 300 м 
[Sc]
-0.9 -2.2 91 -3  993.8  736  298           
03 25.01.20 270 (З) 10 км    10/10 300 м 
[Sc]
-0.4 -3.3 81 -1  992.9  -0.8  735  297  -1.1    0.0  равномерный
сухой снег
100% 
06 25.01.20 260 (З) 10 км    6/6 300 м 
[Sc]
-0.8 -3 85 992.4  -0.5  735  297           
09 25.01.20 260 (З) 0200 м  сильн. снег  10/10 300 м 
[Frnb|Ns]
+0.3 -3.8 74 991.1  -1.2  734  296           
12 25.01.20 270 (З) 10 км  в посл. час снег  10/10 300 м 
[Sc]
-0.1 -1.1 93 -1  989.3  -1.8  732  295           
15 25.01.20 290 (З) 10 км  {снег}  10/10 300 м 
[Sc]
-0.7 -4.9 73 -3  991.2  1.8  734  297    +0.3     
18 25.01.20 310 (СЗ) 4-11{12}  10 км  {снег}  10/10 300 м 
[Sc]
-1.8 -3.6 87 -5  993.6  2.4  735  299           
21 25.01.20 310 (СЗ) 6{13}  10 км  {снег}  10/10 300 м 
[Sc]
-1.1 -4.1 80 -5  996.9  3.2  738  299           
00 26.01.20 320 (СЗ) 5-11{11}  4000 м  слаб. снег  10/10 300 м 
[Frnb|Ns]
-2.8 -4.1 91 -6  1000.6  3.6  741  302           
03 26.01.20 320 (СЗ) 4{11}  4000 м  слаб. снег  10/10 300 м 
[Frnb|Ns]
-2.5 -5.6 79 -5  1003.3  2.7  743  303  -2.8    10  равномерный
сухой снег
100% 
06 26.01.20 320 (СЗ) 3{10}  10 км  {снег}  10/10 300 м 
[Sc]
-2.5 -7.2 70 -5  1005.7  2.4  744  303           
09 26.01.20 300 (СЗ) 10 км    10/10 300 м 
[Sc]
-1.4 -7.1 65 -2  1006.7  745  303           
12 26.01.20 260 (З) 10 км    10/10 300 м 
[Sc]
-2 -7.5 66 -4  1005.8  -0.9  744  303           
15 26.01.20 180 (Ю) 2000 м  снег  10/10 300 м 
[Frnb|Ns]
-2.9 -4.4 89 -4  1002.5  -3.4  742  303    -1.1  0.3     
18 26.01.20 250 (З) 2000 м  снег  10/10 300 м 
[Frnb|Ns]
-1.8 -2.5 95 -1  998  -4.3  739  300           
21 26.01.20 310 (СЗ) 5-11{11}  2000 м  снег  10/10 300 м 
[Frnb|Ns]
+0.2 -0.8 93 -3  999.2  1.3  740  298           
00 27.01.20 340 (С) 6-12{16}  10 км  {снег}  10/10 300 м 
[Sc]
-2.9 -5.1 85 -7  1004.6  5.2  744  303           
03 27.01.20 350 (С) 5{12}  10 км    ясно 
-6.5 -10 76 -11  1008.9  747  309  -6.8    16  равномерный
сухой снег
100% 
06 27.01.20 320 (СЗ) 10 км    3/0 верхняя 
[Ci fib]
-8.2 -10.4 84 -11  1011.8  2.8  749  312  -8.6         
09 27.01.20 320 (СЗ) 10 км    ясно 
-8.9 -11.5 81 -11  1015.1  3.2  751  314           
12 27.01.20 320 (СЗ) 10 км    ясно 
-10.5 -13.1 81 -12  1017.1  1.7  752  316           
15 27.01.20 330 (СЗ) 10 км    ясно 
-15.1 -16.7 88 -15  1018.8  1.4  753  323    -6.5       
18 27.01.20 тихо ()   10 км    ясно 
-13.6 -15.2 88 -14  1019.5  0.9  754  321           
Время (UTC), дата Ветер
(°,м/с) 
Видим.   Явления Облачность Т
(°С)
Тd
(°С)
f(%) Тe
(°С)
Pmin
(гПа)
dP
(гПа)
Po
(мм)
O2
(г/м3)
Тmin Tmax R s Состояние
почвы

Для получения пояснительной информации подведите курсор к названию столбца.

ПОГОДА в Рыбинске - архив

Всё, что Вы хотите узнать о погоде в Рыбинске - удобно и подробно!

Выберите нужную дату (начиная с 1 января 2019* года) и нажмите кнопку "Найти".
Будут отображены архивные сводки погоды по пункту Рыбинск, начиная с указанной даты.


Отображать данные в формате CSV (для использования в таблицах Excel)


Внимание! Наш архив погоды предназначен исключительно для личного некоммерческого использования в познавательных целях. Если Вам необходимы официальные справки о состоянии погоды (для производственных, юридических, коммерческих и т.п. целей), обращайтесь в органы Росгидромета.

*Примечание: данная дата относится к архиву по метеостанциям СССР (Россия, СНГ, Балтия).
Архив по метеостанциям Зарубежной Европы и Азии (кроме Китая) хранится 10 дней, по другим регионам земного шара (Китай, Африка, Америка, Австралия, Океания) - 1 день.

Рыбинск - район местоположения метеостанции


Название, широта, долгота, высота метеостанции:
Рыбинск 58.1°ш. 38.7°д. 105 м над ур. моря [Российская Федерация]

Дополнительная информация

В oтличие oт бoльшинства пoгoдных сайтoв мы публикуем пoдрoбную метеoинфoрмацию в детальнoм прoфессиoнальнoм фoрмате.

Характеристики температуры и влажнoсти вoздуха измеряются на высoте 2 м в тени вдали oт зданий и деревьев.
Скoрoсть ветра измеряется на высoте 10 м (на урoвне рoста челoвека скoрoсть ветра ниже в 1.5-2 раза). Если метеoстанция нахoдится в гoрoде или в лесу, тo скoрoсть ветра занижена на 2-4 м/с пo сравнению с oткрытым местoм. Скoрoсть ветра над акватoриями крупных рек и oзёр, а также на вершинах хoлмoв на 2-5 м/с выше, чем в oбычных услoвиях.
Атмoсфернoе давление в разных тoчках местнoсти мoжет значительнo oтличаться oт давления на метеoстанции, в зависимoсти oт услoвий рельефа (при пoдъёме на 10 м давление пoнижается примернo на 1 мм рт.ст.).